Find SaudiComsat-3

NORAD ID: 31125 Int'l Des: 2007-012 Owner: KACST Country: SA operational
LEOCIRCULARRETROGRADESSO

現在のビュー

3D地球を読み込み中...

SaudiComsat-3について

説明を読み込み中...

次回通過

Passes for default location (London). Set your location on the main map for personalized predictions.

高度履歴

Loading altitude history...

軌道要素

1 31125U 07012J 26150.15364125 .00001063 00000-0 18117-3 0 9994
2 31125 98.3135 125.2191 0040429 108.3626 252.1983 14.70672677 22178
Epoch: May 30, 2026 • Age: 6 hours

現在のステータス

高度 695.3 km
速度 7.50 km/s
衛星直下点 -52.02°S, 97.72°W
打ち上げ日 Apr 17, 2007
運用期間 19.1 years
タイプ other

技術仕様

分類 Payload
質量 12.00 kg
乾燥質量 12.00 kg
総質量 12.00 kg
長さ 0.20 m
直径 0.20 m
スパン 0.20 m
形状 Box
製造者 KACST
バスタイプ Saudisat
フェーズステータス In Orbit
所有者/国 KACST/SA

Most Searched